EW5686 Weather Reports


Display with metric or nautical units.
time (UTC)temp
F
wind
direction
speed
MPH
gust
MPH
rain 1hr
in
rain 24hr
in
rain mn
in
humidity
%
barometer
mb
20260507040023 57 221 0.0 5.0 0.00 0.00 0.00 36 1011.2
20260507034531 58 244 0.0 4.0 0.00 0.00 0.00 35 1011.1
20260507033022 58 223 0.0 7.0 0.00 0.00 0.00 34 1010.9
20260507031522 59 222 1.0 7.0 0.00 0.00 0.00 34 1010.8
20260507030022 60 309 2.0 6.0 0.00 0.00 0.00 33 1010.6
20260507024522 61 220 0.0 6.0 0.00 0.00 0.00 32 1010.5
20260507023020 61 211 1.0 6.0 0.00 0.00 0.00 31 1010.2
20260507021521 63 257 0.0 4.0 0.00 0.00 0.00 31 1010.3
20260507020027 64 239 0.0 4.0 0.00 0.00 0.00 29 1010.0
20260507014517 65 211 0.0 7.0 0.00 0.00 0.00 28 1009.9
20260507013021 65 220 0.0 4.0 0.00 0.00 0.00 27 1009.7
20260507011525 67 243 2.0 8.0 0.00 0.00 0.00 26 1009.6
20260507010016 68 312 0.0 5.0 0.00 0.00 0.00 25 1009.7
20260507004515 68 325 0.0 4.0 0.00 0.00 0.00 24 1009.8
20260507003015 69 312 0.0 3.0 0.00 0.00 0.00 24 1009.7
20260507001543 69 302 0.0 5.0 0.00 0.00 0.00 23 1009.7
20260507000016 70 240 0.0 4.0 0.00 0.00 0.00 21 1009.6
20260506234513 71 237 0.0 3.0 0.00 0.00 0.00 21 1009.5
20260506233012 72 13 0.0 3.0 0.00 0.00 0.00 21 1009.7
20260506231512 72 207 0.0 7.0 0.00 0.00 0.00 21 1009.7
20260506230011 71 245 0.0 2.0 0.00 0.00 0.00 20 1009.8
20260506224509 70 223 0.0 1.0 0.00 0.00 0.00 21 1010.0
20260506223109 71 223 0.0 3.0 0.00 0.00 0.00 21 1010.3
20260506221508 71 5 0.0 5.0 0.00 0.00 0.00 21 1010.6
20260506220008 72 259 0.0 4.0 0.00 0.00 0.00 21 1010.7
20260506214507 72 5 1.0 6.0 0.00 0.00 0.00 21 1011.0
20260506213006 72 165 1.0 5.0 0.00 0.00 0.00 21 1011.3
20260506211506 73 323 0.0 3.0 0.00 0.00 0.00 21 1011.5
20260506210008 72 322 0.0 6.0 0.00 0.00 0.00 21 1011.7
20260506204501 71 198 0.0 5.0 0.00 0.00 0.00 21 1011.7
20260506203121 71 286 0.0 5.0 0.00 0.00 0.00 22 1011.8
20260506201556 69 254 0.0 6.0 0.00 0.00 0.00 22 1011.9
20260506200058 69 355 0.0 3.0 0.00 0.00 0.00 23 1012.2
20260506194554 69 15 1.0 5.0 0.00 0.00 0.00 23 1012.4
20260506193101 68 111 0.0 3.0 0.00 0.00 0.00 23 1012.4
20260506191551 68 327 0.0 2.0 0.00 0.00 0.00 23 1012.4
20260506190052 68 5 1.0 6.0 0.00 0.00 0.00 23 1012.6
20260506184548 66 5 2.0 5.0 0.00 0.00 0.00 25 1012.7
20260506183045 66 15 0.0 4.0 0.00 0.00 0.00 25 1012.9
20260506181549 66 17 1.0 5.0 0.00 0.00 0.00 26 1013.0
20260506180039 65 355 1.0 5.0 0.00 0.00 0.00 27 1013.0
20260506174539 64 277 1.0 4.0 0.00 0.00 0.00 28 1013.1
20260506173036 64 281 1.0 4.0 0.00 0.00 0.00 29 1013.1
20260506171534 63 39 0.0 5.0 0.00 0.00 0.00 29 1013.0
20260506170036 62 355 0.0 4.0 0.00 0.00 0.00 31 1012.9
20260506164543 61 333 0.0 5.0 0.00 0.00 0.00 32 1013.0
20260506163025 61 251 0.0 3.0 0.00 0.00 0.00 31 1012.8
20260506161523 60 246 0.0 5.0 0.00 0.00 0.00 32 1012.7
20260506160019 59 328 0.0 2.0 0.00 0.00 0.00 32 1012.8
20260506154515 58 293 0.0 3.0 0.00 0.00 0.00 32 1012.7
20260506153012 56 277 0.0 2.0 0.00 0.00 0.00 34 1012.7
20260506151508 55 269 0.0 2.0 0.00 0.00 0.00 36 1012.7
20260506150004 54 215 0.0 4.0 0.00 0.00 0.00 38 1012.6
20260506144610 53 282 0.0 3.0 0.00 0.00 0.00 39 1012.6
20260506143056 51 245 0.0 3.0 0.00 0.00 0.00 44 1012.5
20260506141551 48 227 0.0 1.0 0.00 0.00 0.00 49 1012.3
20260506140048 46 227 0.0 1.0 0.00 0.00 0.00 54 1012.4
20260506134544 43 227 0.0 1.0 0.00 0.00 0.00 60 1012.1
20260506133051 40 227 0.0 0.0 0.00 0.00 0.00 65 1011.9
20260506131536 38 227 0.0 0.0 0.00 0.00 0.00 66 1011.8
20260506130033 38 227 0.0 0.0 0.00 0.00 0.00 65 1011.7
20260506124528 38 227 0.0 0.0 0.00 0.00 0.00 65 1011.5
20260506123024 38 227 0.0 0.0 0.00 0.00 0.00 65 1011.2
20260506121523 38 227 0.0 1.0 0.00 0.00 0.00 64 1011.2
20260506120041 38 227 0.0 0.0 0.00 0.00 0.00 63 1011.2
20260506114519 39 227 0.0 0.0 0.00 0.00 0.00 62 1011.2
20260506113016 39 227 0.0 0.0 0.00 0.00 0.00 62 1011.2
20260506111514 40 227 0.0 0.0 0.00 0.00 0.00 61 1011.0
20260506110013 40 227 0.0 0.0 0.00 0.00 0.00 61 1010.9
20260506104521 40 227 0.0 1.0 0.00 0.00 0.00 61 1010.7
20260506103028 40 227 0.0 1.0 0.00 0.00 0.00 61 1010.7
20260506101509 40 227 0.0 1.0 0.00 0.00 0.00 61 1010.6
20260506100008 40 227 0.0 0.0 0.00 0.00 0.00 61 1010.6
20260506094505 40 227 0.0 0.0 0.00 0.00 0.00 60 1010.6
20260506093005 40 227 0.0 0.0 0.00 0.00 0.00 60 1010.4
20260506091502 40 227 0.0 0.0 0.00 0.00 0.00 60 1010.1
20260506090105 41 227 0.0 0.0 0.00 0.00 0.00 59 1010.1
20260506084631 41 227 0.0 0.0 0.00 0.00 0.00 58 1010.0
20260506083056 41 227 0.0 0.0 0.00 0.00 0.00 56 1010.1
20260506081559 42 227 0.0 0.0 0.00 0.00 0.00 56 1010.1
20260506073050 43 227 0.0 0.0 0.00 0.00 0.00 54 1010.2
20260506071548 43 227 0.0 1.0 0.00 0.00 0.00 52 1010.1
20260506061540 45 227 0.0 1.0 0.00 0.00 0.00 50 1009.7
20260506044536 47 227 0.0 1.0 0.00 0.00 0.00 47 1008.9
20260506043030 47 227 0.0 1.0 0.00 0.00 0.00 47 1008.9
20260506041529 48 227 0.0 3.0 0.00 0.00 0.00 47 1008.7